20050113,000004,779782,31.998728,-122.412115,22.4,14.603,32.860,40.192,351.47,0.0,2.237,11.190,14.245, NaN,24.407,   NaN,12.71,1022.16,78.91,12.99,10.6,6.8,6.8,7.3,8.3,3.8,6.6,7.1,NaN, NaN,15.0,77.9,305.6,1105574404,1105574404,1,1.6,000004,000004,350.9,31.998598,-122.412138,-0.08,NaN,NaN,14.607, NaN,NaN,NaN, NaN, NaN
20050113,000033,779812,31.998855,-122.412223,22.4,14.602,32.858,40.190,361.17,0.0,2.256,10.384,14.245, NaN,24.406,   NaN,12.77,1022.07,79.36,13.02,11.0,7.8,7.1,7.5,3.6,0.6,6.8,7.2,NaN, NaN,15.0,292.0,324.6,1105574434,1105574433,1,1.6,000033,000033,343.8,31.998725,-122.412237,0.09,NaN,NaN,14.606, NaN,NaN,NaN, NaN, NaN
20050113,000103,779841,31.999046,-122.412413,22.4,14.602,32.857,40.189,373.07,0.0,2.256,12.767,14.244, NaN,24.406,   NaN,12.65,1022.06,78.76,12.94,10.8,13.0,8.2,8.6,359.1,1.3,7.6,8.1,NaN, NaN,16.5,329.4,323.8,1105574464,1105574464,1,2.2,000064,000064,344.3,31.998915,-122.412432,-0.22,NaN,NaN,14.606, NaN,NaN,NaN, NaN, NaN
20050113,000133,779871,31.999198,-122.412588,22.2,14.601,32.861,40.191,383.32,0.0,2.218,13.105,14.244, NaN,24.408,   NaN,12.50,1022.10,78.12,12.78,12.6,14.8,8.3,8.9,2.7,4.8,7.7,8.2,NaN, NaN,15.4,277.2,287.1,1105574494,1105574493,1,2.3,000093,000093,356.1,31.999068,-122.412630,-0.19,NaN,NaN,14.605, NaN,NaN,NaN, NaN, NaN
20050113,000203,779901,31.999331,-122.412673,22.4,14.601,32.859,40.189,389.11,0.0,2.199,12.159,14.244, NaN,24.407,   NaN,12.61,1022.11,78.50,12.85,0.7,1.5,7.2,7.5,357.6,358.3,6.7,7.0,NaN, NaN,15.6,349.3,33.5,1105574523,1105574523,1,1.1,000123,000123,355.1,31.999200,-122.412727,0.09,NaN,NaN,14.605, NaN,NaN,NaN, NaN, NaN
20050113,000233,779931,31.999465,-122.412803,22.4,14.600,32.858,40.187,398.43,0.0,2.180,11.974,14.243, NaN,24.407,   NaN,12.69,1022.09,78.63,12.97,354.6,355.3,6.8,6.9,351.6,352.4,6.3,6.3,NaN, NaN,15.9,34.2,327.1,1105574554,1105574553,1,1.8,000153,000153,349.6,31.999335,-122.412832,0.30,NaN,NaN,14.604, NaN,NaN,NaN, NaN, NaN
20050113,000304,779962,31.999615,-122.412892,22.4,14.600,32.856,40.185,402.37,0.0,2.199,13.136,14.242, NaN,24.405,   NaN,12.64,1022.02,78.44,12.92,0.5,1.4,7.2,7.3,352.9,353.9,6.6,6.7,NaN, NaN,18.0,37.4,347.8,1105574585,1105574584,1,1.1,000184,000184,349.6,31.999495,-122.412930,0.04,NaN,NaN,14.604, NaN,NaN,NaN, NaN, NaN
20050113,000334,779992,31.999756,-122.413058,22.2,14.600,32.860,40.190,398.42,0.0,2.180,10.473,14.242, NaN,24.408,   NaN,12.62,1022.06,78.42,12.90,1.3,3.4,7.8,7.9,353.1,355.2,7.2,7.4,NaN, NaN,14.5,266.8,290.3,1105574615,1105574614,1,2.7,000214,000214,349.6,31.999626,-122.413073,-0.03,NaN,NaN,14.604, NaN,NaN,NaN, NaN, NaN
20050113,000403,780021,31.999845,-122.413120,22.4,14.600,32.857,40.187,394.47,0.0,2.180,9.705,14.242, NaN,24.406,   NaN,12.57,1022.03,78.10,12.84,0.6,4.4,8.3,8.5,352.4,356.5,7.8,8.1,NaN, NaN,16.2,38.1,46.0,1105574644,1105574644,1,0.5,000243,000244,351.7,31.999711,-122.413162,0.29,NaN,NaN,14.604, NaN,NaN,NaN, NaN, NaN
20050113,000434,780053,31.999936,-122.413245,22.3,14.602,32.857,40.188,390.34,0.0,2.199,11.241,14.242, NaN,24.405,   NaN,12.58,1022.00,78.00,12.83,355.7,0.9,8.9,8.7,349.3,354.7,8.5,8.3,NaN, NaN,16.5,354.0,18.7,1105574674,1105574674,1,1.2,000274,000274,353.6,31.999810,-122.413285,0.01,NaN,NaN,14.606, NaN,NaN,NaN, NaN, NaN
20050113,000504,780083,32.000040,-122.413340,22.3,14.601,32.858,40.188,389.83,0.0,2.180,14.263,14.243, NaN,24.406,   NaN,12.58,1022.06,77.88,12.85,352.7,356.7,9.2,9.0,347.2,351.6,8.8,8.6,NaN, NaN,14.8,250.9,301.3,1105574704,1105574704,1,1.7,000303,000304,352.4,31.999915,-122.413380,0.15,NaN,NaN,14.605, NaN,NaN,NaN, NaN, NaN
20050113,000534,780112,32.000172,-122.413433,22.2,14.602,32.854,40.185,417.15,0.0,2.199,12.174,14.244, NaN,24.403,   NaN,12.65,1022.09,78.16,12.90,359.6,1.1,8.8,8.9,352.1,353.6,8.4,8.4,NaN, NaN,15.8,265.3,309.8,1105574735,1105574735,1,1.4,000334,000335,345.3,32.000042,-122.413462,0.03,NaN,NaN,14.606, NaN,NaN,NaN, NaN, NaN
20050113,000604,780142,32.000253,-122.413550,22.4,14.602,32.856,40.187,391.05,0.0,2.199,10.747,14.244, NaN,24.405,   NaN,12.80,1022.03,78.83,13.05,9.6,9.7,8.5,8.8,359.1,359.1,8.1,8.4,NaN, NaN,16.6,16.8,14.2,1105574765,1105574765,1,0.9,000364,000365,345.6,32.000125,-122.413577,0.00,NaN,NaN,14.606, NaN,NaN,NaN, NaN, NaN
20050113,000633,780172,32.000308,-122.413720,22.6,14.601,32.857,40.187,374.11,0.0,2.237,9.735,14.245, NaN,24.405,   NaN,12.71,1022.09,78.43,13.01,14.2,15.4,8.6,9.2,2.5,3.5,8.3,9.0,NaN, NaN,16.0,262.7,282.4,1105574794,1105574794,1,2.1,000394,000394,345.1,32.000185,-122.413732,-0.07,NaN,NaN,14.605, NaN,NaN,NaN, NaN, NaN
20050113,000704,780203,32.000385,-122.413842,22.4,14.600,32.858,40.187,371.27,0.0,2.162,11.097,14.245, NaN,24.407,   NaN,12.54,1022.07,77.69,12.84,13.0,15.0,8.8,9.3,2.0,3.8,8.6,9.1,NaN, NaN,16.9,2.4,347.1,1105574825,1105574825,1,1.6,000424,000425,350.2,32.000275,-122.413880,-0.13,NaN,NaN,14.604, NaN,NaN,NaN, NaN, NaN
20050113,000734,780233,32.000502,-122.413987,22.5,14.600,32.858,40.188,381.33,0.0,2.218,13.793,14.245, NaN,24.407,   NaN,12.55,1022.05,77.64,12.80,9.2,10.9,8.6,8.9,2.8,4.4,8.3,8.6,NaN, NaN,16.9,300.1,280.9,1105574855,1105574854,1,1.5,000454,000454,354.2,32.000375,-122.414037,0.00,NaN,NaN,14.604, NaN,NaN,NaN, NaN, NaN
20050113,000805,780264,32.000635,-122.414115,22.5,14.602,32.853,40.184,358.90,0.0,2.218,13.230,14.245, NaN,24.403,   NaN,12.66,1022.06,78.11,12.93,6.8,8.8,7.9,8.2,4.4,6.3,7.5,7.8,NaN, NaN,17.1,59.8,299.8,1105574885,1105574885,1,0.4,000485,000485,353.2,32.000507,-122.414162,-0.04,NaN,NaN,14.606, NaN,NaN,NaN, NaN, NaN
20050113,000834,780292,32.000722,-122.414252,22.5,14.599,32.859,40.187,347.69,0.0,2.218,10.213,14.244, NaN,24.407,   NaN,12.62,1022.08,77.96,12.93,12.6,15.2,7.9,8.5,7.6,10.0,7.6,8.2,NaN, NaN,16.7,270.4,288.6,1105574915,1105574915,1,1.6,000514,000515,345.2,32.000603,-122.414282,0.06,NaN,NaN,14.603, NaN,NaN,NaN, NaN, NaN
20050113,000904,780322,32.000842,-122.414428,22.2,14.599,32.857,40.185,342.53,0.0,2.218,10.652,14.244, NaN,24.406,   NaN,12.53,1022.10,77.67,12.83,20.8,21.9,8.1,8.9,11.0,11.7,7.8,8.6,NaN, NaN,16.7,272.3,284.6,1105574945,1105574945,1,2.5,000544,000545,344.7,32.000722,-122.414460,-0.17,NaN,NaN,14.603, NaN,NaN,NaN, NaN, NaN
20050113,000934,780353,32.000963,-122.414632,22.3,14.598,32.857,40.185,337.33,0.0,2.237,12.998,14.244, NaN,24.407,   NaN,12.52,1022.11,77.69,12.80,22.8,22.9,7.7,8.5,13.0,12.5,7.3,8.1,NaN, NaN,17.1,21.8,330.6,1105574975,1105574975,1,1.4,000574,000575,349.9,32.000847,-122.414667,-0.40,NaN,NaN,14.602, NaN,NaN,NaN, NaN, NaN
20050113,001004,780383,32.001135,-122.414813,22.2,14.600,32.856,40.185,332.94,0.0,2.256,10.847,14.244, NaN,24.405,   NaN,12.57,1022.14,77.92,12.85,15.9,15.2,7.5,8.1,11.0,9.8,7.0,7.6,NaN, NaN,16.3,292.9,297.7,1105575004,1105575004,1,1.2,000604,000604,357.6,32.001015,-122.414873,-0.31,NaN,NaN,14.604, NaN,NaN,NaN, NaN, NaN
20050113,001034,780413,32.001287,-122.414955,22.3,14.600,32.856,40.186,336.52,0.0,2.615,10.685,14.244, NaN,24.405,   NaN,12.68,1022.11,78.51,12.95,359.2,359.0,7.4,7.5,0.8,0.6,6.8,6.9,NaN, NaN,16.5,304.4,321.9,1105575035,1105575035,1,1.6,000634,000635,1.5,32.001175,-122.415022,-0.07,NaN,NaN,14.604, NaN,NaN,NaN, NaN, NaN
20050113,001105,780444,32.001475,-122.415057,22.5,14.608,32.851,40.187,341.42,0.0,2.256,11.407,14.244, NaN,24.399,   NaN,12.70,1022.06,78.64,12.99,348.0,351.4,8.1,8.1,351.0,354.8,7.5,7.5,NaN, NaN,16.3,39.4,323.1,1105575065,1105575065,1,2.1,000665,000665,356.1,32.001357,-122.415102,0.29,NaN,NaN,14.612, NaN,NaN,NaN, NaN, NaN
20050113,001134,780472,32.001665,-122.415155,22.4,14.605,32.854,40.188,343.85,0.0,2.237,10.442,14.241, NaN,24.402,   NaN,12.59,1022.06,78.14,12.89,348.3,355.3,9.3,9.3,346.2,353.6,8.5,8.6,NaN, NaN,15.9,304.4,312.5,1105575095,1105575095,1,2.3,000694,000695,352.1,32.001575,-122.415205,0.31,NaN,NaN,14.609, NaN,NaN,NaN, NaN, NaN
20050113,001204,780502,32.001940,-122.415257,22.5,14.598,32.859,40.187,344.89,0.0,2.199,13.213,14.242, NaN,24.408,   NaN,12.54,1022.09,77.88,12.80,352.5,358.1,9.5,9.5,347.0,353.1,8.6,8.5,NaN, NaN,17.0,32.2,9.9,1105575124,1105575124,1,1.9,000724,000724,354.7,32.001833,-122.415318,0.20,NaN,NaN,14.602, NaN,NaN,NaN, NaN, NaN
20050113,001234,780533,32.002243,-122.415415,22.5,14.597,32.857,40.184,340.41,0.0,2.218,10.507,14.240, NaN,24.406,   NaN,12.61,1022.12,78.10,12.86,350.5,356.1,9.0,8.8,346.3,352.1,8.0,7.8,NaN, NaN,16.1,339.2,336.6,1105575155,1105575155,1,2.7,000754,000755,356.1,32.002153,-122.415470,0.05,NaN,NaN,14.601, NaN,NaN,NaN, NaN, NaN
20050113,001304,780563,32.002552,-122.415503,22.5,14.599,32.854,40.182,337.79,0.0,2.237,12.184,14.241, NaN,24.404,   NaN,12.59,1022.13,77.81,12.88,349.3,355.1,8.9,8.5,346.4,352.2,7.9,7.4,NaN, NaN,15.2,314.9,357.2,1105575184,1105575184,1,2.2,000784,000784,356.6,32.002433,-122.415563,0.00,NaN,NaN,14.603, NaN,NaN,NaN, NaN, NaN
20050113,001335,780594,32.002770,-122.415605,22.3,14.597,32.856,40.183,332.83,0.0,2.237,11.797,14.241, NaN,24.406,   NaN,12.57,1022.15,77.72,12.83,355.8,356.5,8.9,8.6,354.1,355.0,8.0,7.7,NaN, NaN,13.9,16.8,349.8,1105575215,1105575215,1,1.0,000815,000815,358.1,32.002642,-122.415675,0.16,NaN,NaN,14.601, NaN,NaN,NaN, NaN, NaN
20050113,001404,780622,32.002910,-122.415722,22.6,14.596,32.713,40.024,327.16,0.0,2.237,12.250,14.239, NaN,24.296,   NaN,12.59,1022.21,77.84,12.86,358.5,358.8,8.6,8.5,357.2,357.8,8.0,7.8,NaN, NaN,17.1,92.4,66.0,1105575245,1105575245,1,0.9,000844,000845,355.6,32.002802,-122.415772,0.06,NaN,NaN,14.600, NaN,NaN,NaN, NaN, NaN
20050113,001434,780652,32.003062,-122.415812,22.2,14.597,32.854,40.179,322.60,0.0,2.256,8.521,14.238, NaN,24.404,   NaN,12.61,1022.16,77.96,12.90,1.9,4.7,8.4,8.5,359.6,2.3,7.9,8.0,NaN, NaN,16.4,295.6,317.8,1105575275,1105575275,1,1.3,000874,000875,352.9,32.002953,-122.415877,0.04,NaN,NaN,14.601, NaN,NaN,NaN, NaN, NaN
20050113,001504,780682,32.003222,-122.415967,22.3,14.595,32.856,40.180,317.59,0.0,2.218,13.574,14.238, NaN,24.406,   NaN,12.56,1022.20,77.73,12.84,6.6,9.3,8.2,8.4,3.5,6.1,7.6,7.9,NaN, NaN,17.1,40.7,354.7,1105575305,1105575305,1,1.4,000904,000905,355.4,32.003130,-122.416023,-0.05,NaN,NaN,14.599, NaN,NaN,NaN, NaN, NaN
20050113,001534,780713,32.003433,-122.416100,22.3,14.595,32.857,40.180,308.60,0.0,2.237,12.494,14.239, NaN,24.407,   NaN,12.64,1022.14,78.10,12.91,9.7,8.9,7.7,8.1,8.1,6.8,7.0,7.4,NaN, NaN,16.1,296.7,312.2,1105575335,1105575335,1,1.9,000934,000935,353.9,32.003335,-122.416165,-0.02,NaN,NaN,14.599, NaN,NaN,NaN, NaN, NaN
20050113,001605,780743,32.003630,-122.416262,22.3,14.593,32.855,40.177,301.67,0.0,2.218,11.356,14.238, NaN,24.406,   NaN,12.77,1022.18,78.69,13.02,16.3,14.5,7.4,8.0,15.5,12.8,6.8,7.4,NaN, NaN,16.1,3.0,327.4,1105575365,1105575365,1,2.1,000965,000965,352.6,32.003527,-122.416313,-0.16,NaN,NaN,14.597, NaN,NaN,NaN, NaN, NaN
20050113,001635,780774,32.003838,-122.416413,22.3,14.592,32.859,40.182,295.66,0.0,2.237,9.681,14.239, NaN,24.409,   NaN,12.70,1022.14,78.32,12.99,18.9,19.1,7.8,8.2,17.6,17.5,7.2,7.6,NaN, NaN,16.7,307.8,307.6,1105575396,1105575395,1,2.0,000995,000995,356.2,32.003730,-122.416473,0.00,NaN,NaN,14.596, NaN,NaN,NaN, NaN, NaN
20050113,001705,780804,32.004043,-122.416543,22.4,14.593,32.852,40.174,291.59,0.0,2.237,11.394,14.239, NaN,24.404,   NaN,12.60,1022.16,77.94,12.87,14.6,16.7,8.1,8.5,14.9,16.9,7.5,7.9,NaN, NaN,11.2,273.5,323.7,1105575425,1105575425,1,1.6,001025,001025,358.5,32.003908,-122.416590,-0.06,NaN,NaN,14.597, NaN,NaN,NaN, NaN, NaN
20050113,001734,780832,32.004183,-122.416657,22.6,14.594,32.853,40.176,296.84,0.0,2.256,12.206,14.237, NaN,24.404,   NaN,12.65,1022.17,78.31,12.90,11.2,12.8,7.8,8.0,12.5,13.8,7.2,7.5,NaN, NaN,13.2,317.2,326.0,1105575455,1105575455,1,2.1,001054,001055,355.7,32.004067,-122.416711,-0.04,NaN,NaN,14.598, NaN,NaN,NaN, NaN, NaN
20050113,001805,780863,32.004367,-122.416761,22.3,14.595,32.854,40.177,307.41,0.0,2.256,13.362,14.240, NaN,24.405,   NaN,12.67,1022.16,78.25,12.97,12.5,12.9,8.2,8.3,11.9,12.0,7.6,7.8,NaN, NaN,14.3,288.9,21.7,1105575485,1105575485,1,1.4,001085,001085,352.1,32.004242,-122.416805,0.07,NaN,NaN,14.599, NaN,NaN,NaN, NaN, NaN
20050113,001835,780893,32.004543,-122.416960,22.4,14.596,32.853,40.177,316.48,0.0,2.256,10.859,14.241, NaN,24.403,   NaN,12.63,1022.17,78.31,12.91,14.9,13.9,8.8,9.2,11.5,10.7,8.3,8.7,NaN, NaN,12.7,78.9,35.2,1105575516,1105575516,1,1.4,001115,001116,353.9,32.004417,-122.416973,-0.26,NaN,NaN,14.600, NaN,NaN,NaN, NaN, NaN
20050113,001904,780923,32.004693,-122.417055,22.5,14.597,32.852,40.178,316.38,0.0,2.294,10.214,14.241, NaN,24.403,   NaN,12.63,1022.16,78.40,12.91,8.0,7.9,8.8,9.0,5.8,6.1,8.3,8.4,NaN, NaN,15.8,76.5,19.1,1105575545,1105575545,1,1.0,001145,001145,1.5,32.004577,-122.417123,0.13,NaN,NaN,14.601, NaN,NaN,NaN, NaN, NaN
20050113,001935,780954,32.004840,-122.417191,22.4,14.599,32.854,40.182,377.46,0.0,2.275,8.008,14.242, NaN,24.404,   NaN,12.64,1022.19,78.49,12.90,356.8,359.8,8.3,8.4,359.9,2.9,7.8,7.9,NaN, NaN,12.6,40.6,12.5,1105575576,1105575576,1,0.9,001175,001176,2.1,32.004708,-122.417226,0.22,NaN,NaN,14.603, NaN,NaN,NaN, NaN, NaN
20050113,002004,780982,32.004973,-122.417256,22.5,14.600,32.853,40.182,406.09,0.0,2.275,11.670,14.242, NaN,24.403,   NaN,12.64,1022.17,78.61,12.91,353.0,355.9,7.6,7.6,354.8,358.0,7.1,7.1,NaN, NaN,13.7,324.4,324.0,1105575605,1105575605,1,1.9,001204,001205,352.2,32.004853,-122.417295,0.20,NaN,NaN,14.604, NaN,NaN,NaN, NaN, NaN
20050113,002035,781013,32.005143,-122.417381,22.5,14.599,32.854,40.182,404.35,0.0,2.313,13.130,14.242, NaN,24.404,   NaN,12.70,1022.16,78.96,12.97,359.5,0.2,7.4,7.5,355.9,356.6,6.8,6.9,NaN, NaN,14.9,308.2,292.0,1105575636,1105575635,1,2.0,001235,001235,352.1,32.005018,-122.417411,0.03,NaN,NaN,14.603, NaN,NaN,NaN, NaN, NaN
20050113,002105,781043,32.005328,-122.417523,22.5,14.598,32.854,40.180,347.46,0.0,2.294,13.059,14.242, NaN,24.404,   NaN,12.67,1022.12,78.87,12.96,9.6,9.3,8.1,8.6,4.3,3.6,7.5,8.0,NaN, NaN,15.4,337.0,317.7,1105575666,1105575666,1,1.1,001266,001266,352.1,32.005202,-122.417553,-0.04,NaN,NaN,14.602, NaN,NaN,NaN, NaN, NaN
20050113,002135,781073,32.005487,-122.417653,22.5,14.597,32.855,40.180,360.32,0.0,2.256,13.274,14.242, NaN,24.405,   NaN,12.59,1022.15,78.56,12.89,13.7,15.2,8.8,9.5,8.8,10.0,8.2,8.9,NaN, NaN,14.6,285.9,341.0,1105575696,1105575695,1,1.4,001295,001295,351.4,32.005363,-122.417688,-0.26,NaN,NaN,14.601, NaN,NaN,NaN, NaN, NaN
20050113,002206,781104,32.005618,-122.417805,22.5,14.594,32.859,40.183,319.02,0.0,2.199,12.660,14.242, NaN,24.409,   NaN,12.61,1022.09,78.53,12.87,15.7,17.1,9.1,9.8,12.0,13.0,8.6,9.3,NaN, NaN,20.0,3.6,319.2,1105575726,1105575726,1,0.7,001325,001326,356.6,32.005522,-122.417875,-0.28,NaN,NaN,14.598, NaN,NaN,NaN, NaN, NaN
20050113,002235,781134,32.005793,-122.417970,22.5,14.595,32.854,40.178,304.00,0.0,2.237,11.496,14.243, NaN,24.405,   NaN,12.61,1022.15,78.52,12.88,11.5,12.1,9.2,9.7,9.6,10.1,8.7,9.2,NaN, NaN,17.1,302.4,304.1,1105575756,1105575756,1,2.2,001355,001356,355.9,32.005685,-122.418030,-0.10,NaN,NaN,14.599, NaN,NaN,NaN, NaN, NaN
20050113,002305,781164,32.005960,-122.418106,22.4,14.597,32.851,40.176,295.19,0.0,2.294,11.101,14.244, NaN,24.402,   NaN,12.61,1022.20,78.32,12.90,2.3,4.4,9.4,9.7,1.1,3.3,8.8,9.1,NaN, NaN,16.2,279.8,304.2,1105575786,1105575786,1,2.6,001385,001386,355.4,32.005847,-122.418170,-0.24,NaN,NaN,14.601, NaN,NaN,NaN, NaN, NaN
20050113,002335,781193,32.006147,-122.418206,22.3,14.595,32.852,40.176,290.15,0.0,2.237,9.074,14.244, NaN,24.403,   NaN,12.56,1022.20,78.13,12.83,2.3,0.4,9.3,9.3,2.0,359.6,8.6,8.7,NaN, NaN,17.2,322.4,337.8,1105575816,1105575816,1,0.9,001415,001416,358.6,32.006032,-122.418281,-0.06,NaN,NaN,14.599, NaN,NaN,NaN, NaN, NaN
20050113,002405,781223,32.006322,-122.418333,22.4,14.594,32.853,40.175,287.68,0.0,2.275,11.333,14.241, NaN,24.404,   NaN,12.47,1022.20,77.56,12.76,1.9,359.3,8.7,8.7,1.8,358.7,7.9,8.0,NaN, NaN,17.4,22.2,68.3,1105575845,1105575845,1,1.3,001445,001445,354.7,32.006203,-122.418386,-0.05,NaN,NaN,14.598, NaN,NaN,NaN, NaN, NaN
20050113,002435,781253,32.006502,-122.418473,22.4,14.591,32.854,40.174,286.93,0.0,2.275,10.928,14.240, NaN,24.405,   NaN,12.51,1022.27,77.60,12.77,0.8,1.5,8.1,8.5,358.3,359.3,7.5,7.9,NaN, NaN,15.2,301.8,313.4,1105575876,1105575876,1,1.8,001476,001476,353.2,32.006378,-122.418508,0.05,NaN,NaN,14.595, NaN,NaN,NaN, NaN, NaN
20050113,002505,781284,32.006662,-122.418578,22.4,14.591,32.854,40.174,286.34,0.0,2.294,11.338,14.239, NaN,24.405,   NaN,12.54,1022.27,77.51,12.80,3.8,3.6,8.1,8.5,0.8,0.7,7.5,7.9,NaN, NaN,17.6,6.0,340.5,1105575906,1105575905,1,0.6,001505,001505,358.1,32.006552,-122.418636,-0.14,NaN,NaN,14.595, NaN,NaN,NaN, NaN, NaN
20050113,002536,781314,32.006822,-122.418695,22.4,14.592,32.853,40.174,283.91,0.0,2.256,8.492,14.237, NaN,24.405,   NaN,12.64,1022.31,77.92,12.90,357.6,358.3,7.8,8.1,357.3,357.7,7.1,7.4,NaN, NaN,15.1,287.8,321.6,1105575936,1105575936,1,1.4,001536,001536,357.9,32.006710,-122.418748,0.11,NaN,NaN,14.596, NaN,NaN,NaN, NaN, NaN
20050113,002605,781344,32.006972,-122.418790,22.5,14.591,32.856,40.176,287.22,0.0,2.313,11.584,14.237, NaN,24.407,   NaN,12.70,1022.33,78.31,12.98,358.7,353.9,7.1,7.6,358.0,352.8,6.6,7.0,NaN, NaN,16.3,89.3,345.7,1105575966,1105575966,1,1.0,001565,001566,353.9,32.006863,-122.418840,0.09,NaN,NaN,14.595, NaN,NaN,NaN, NaN, NaN
20050113,002636,781375,32.007158,-122.418930,22.5,14.593,32.852,40.174,288.86,0.0,2.313,10.532,14.236, NaN,24.404,   NaN,12.73,1022.30,78.53,13.00,1.7,358.8,7.6,8.0,358.7,355.7,7.0,7.4,NaN, NaN,16.2,354.9,328.4,1105575997,1105575996,1,1.6,001596,001596,354.2,32.007042,-122.418966,0.17,NaN,NaN,14.597, NaN,NaN,NaN, NaN, NaN
20050113,002705,781403,32.007340,-122.419031,22.3,14.590,32.856,40.175,299.89,0.0,2.313,10.808,14.237, NaN,24.407,   NaN,12.61,1022.36,78.11,12.89,358.9,1.9,8.2,8.4,356.4,359.6,7.5,7.7,NaN, NaN,14.3,276.5,324.7,1105576026,1105576026,1,1.4,001626,001626,353.6,32.007220,-122.419066,0.17,NaN,NaN,14.594, NaN,NaN,NaN, NaN, NaN
20050113,002736,781434,32.007523,-122.419138,22.5,14.592,32.859,40.180,333.48,0.0,2.256,9.645,14.237, NaN,24.409,   NaN,12.62,1022.43,78.28,12.87,2.5,4.5,7.8,7.9,359.4,1.5,7.1,7.3,NaN, NaN,15.7,52.4,27.0,1105576057,1105576056,1,2.0,001656,001656,352.7,32.007415,-122.419185,-0.01,NaN,NaN,14.596, NaN,NaN,NaN, NaN, NaN
20050113,002806,781464,32.007702,-122.419326,22.5,14.592,32.856,40.177,328.92,0.0,2.275,9.060,14.238, NaN,24.406,   NaN,12.57,1022.47,77.97,12.83,0.4,2.3,7.3,7.2,358.0,0.2,6.6,6.5,NaN, NaN,15.7,282.7,306.6,1105576086,1105576086,1,3.3,001686,001686,356.2,32.007600,-122.419360,0.17,NaN,NaN,14.596, NaN,NaN,NaN, NaN, NaN
20050113,002836,781494,32.007882,-122.419431,22.4,14.595,32.850,40.174,312.61,0.0,2.294,11.088,14.234, NaN,24.402,   NaN,12.71,1022.45,78.69,12.93,353.7,357.2,6.5,6.5,352.6,355.9,5.7,5.8,NaN, NaN,15.3,292.0,306.1,1105576117,1105576117,1,2.5,001716,001717,354.6,32.007780,-122.419470,0.19,NaN,NaN,14.599, NaN,NaN,NaN, NaN, NaN
20050113,002906,781525,32.008078,-122.419528,22.3,14.595,32.852,40.175,286.99,0.0,2.275,9.634,14.228, NaN,24.403,   NaN,12.71,1022.42,78.63,12.99,352.0,355.9,6.5,6.7,349.5,353.3,5.8,6.0,NaN, NaN,15.3,275.6,319.9,1105576146,1105576146,1,2.1,001746,001746,354.1,32.007967,-122.419571,0.02,NaN,NaN,14.599, NaN,NaN,NaN, NaN, NaN
20050113,002936,781555,32.008260,-122.419655,22.3,14.593,32.857,40.179,269.47,0.0,2.275,12.260,14.228, NaN,24.407,   NaN,12.71,1022.43,78.79,12.98,349.8,353.2,7.8,7.7,345.9,349.8,7.0,6.9,NaN, NaN,15.7,50.2,27.6,1105576177,1105576177,1,1.0,001776,001777,353.5,32.008147,-122.419695,0.17,NaN,NaN,14.597, NaN,NaN,NaN, NaN, NaN
20050113,003006,781585,32.008437,-122.419793,22.5,14.593,32.856,40.178,259.70,0.0,2.294,8.803,14.231, NaN,24.407,   NaN,12.64,1022.47,78.57,12.92,347.3,352.3,8.4,8.1,343.4,348.8,7.7,7.4,NaN, NaN,15.5,37.6,351.3,1105576207,1105576206,1,1.6,001806,001806,356.2,32.008325,-122.419841,0.06,NaN,NaN,14.597, NaN,NaN,NaN, NaN, NaN
20050113,003036,781614,32.008632,-122.419890,22.4,14.595,32.856,40.180,249.14,0.0,2.294,11.616,14.234, NaN,24.406,   NaN,12.61,1022.49,78.44,12.88,352.6,355.9,8.0,8.0,350.9,354.4,7.3,7.2,NaN, NaN,15.8,61.5,30.6,1105576236,1105576236,1,1.4,001836,001836,358.1,32.008517,-122.419945,0.23,NaN,NaN,14.599, NaN,NaN,NaN, NaN, NaN
20050113,003106,781644,32.008823,-122.419988,22.6,14.595,32.856,40.180,236.87,0.0,2.313,8.175,14.236, NaN,24.406,   NaN,12.63,1022.43,78.54,12.89,357.7,357.8,7.5,7.7,356.9,357.0,6.8,6.9,NaN, NaN,15.0,273.2,339.1,1105576267,1105576266,1,1.2,001866,001866,355.6,32.008700,-122.420028,0.09,NaN,NaN,14.599, NaN,NaN,NaN, NaN, NaN
20050113,003136,781674,32.008990,-122.420090,22.4,14.595,32.857,40.180,227.60,0.0,2.275,8.102,14.235, NaN,24.407,   NaN,12.70,1022.47,78.83,12.96,358.1,358.5,7.6,7.6,356.1,356.3,6.9,7.0,NaN, NaN,16.0,36.3,351.7,1105576297,1105576297,1,1.2,001896,001897,353.1,32.008880,-122.420128,0.00,NaN,NaN,14.599, NaN,NaN,NaN, NaN, NaN
20050113,003206,781705,32.009180,-122.420240,22.5,14.592,32.857,40.178,221.81,0.0,2.275,9.602,14.235, NaN,24.408,   NaN,12.82,1022.50,79.48,13.05,7.2,8.1,7.8,8.0,3.8,4.7,7.2,7.4,NaN, NaN,15.3,60.2,0.6,1105576327,1105576326,1,1.6,001926,001926,352.9,32.009065,-122.420271,0.04,NaN,NaN,14.596, NaN,NaN,NaN, NaN, NaN
20050113,003236,781735,32.009360,-122.420391,22.5,14.592,32.857,40.178,218.54,0.0,2.313,11.321,14.237, NaN,24.407,   NaN,12.72,1022.47,78.86,13.03,17.0,17.8,8.4,9.0,14.0,14.5,7.8,8.4,NaN, NaN,15.9,337.8,316.2,1105576357,1105576357,1,2.6,001957,001957,352.6,32.009255,-122.420421,-0.09,NaN,NaN,14.596, NaN,NaN,NaN, NaN, NaN
20050113,003306,781764,32.009560,-122.420526,22.6,14.593,32.855,40.177,218.61,0.0,2.313,13.268,14.238, NaN,24.406,   NaN,12.60,1022.50,78.39,12.85,19.9,20.3,8.8,9.6,16.4,16.5,8.3,9.0,NaN, NaN,14.5,15.8,346.5,1105576387,1105576387,1,2.4,001986,001987,351.4,32.009463,-122.420556,-0.16,NaN,NaN,14.597, NaN,NaN,NaN, NaN, NaN
20050113,003336,781794,32.009847,-122.420725,22.6,14.594,32.855,40.178,220.04,0.0,2.313,10.053,14.240, NaN,24.406,   NaN,12.64,1022.45,78.29,12.88,21.8,20.6,8.6,9.3,18.0,16.1,7.9,8.5,NaN, NaN,14.5,356.8,329.1,1105576417,1105576417,1,3.2,002016,002017,349.9,32.009752,-122.420743,-0.17,NaN,NaN,14.598, NaN,NaN,NaN, NaN, NaN
20050113,003405,781824,32.010150,-122.420913,22.5,14.592,32.854,40.175,223.93,0.0,2.313,10.310,14.239, NaN,24.406,   NaN,12.63,1022.50,78.00,12.89,21.9,20.5,8.1,8.9,19.0,16.6,7.3,8.0,NaN, NaN,14.2,312.6,317.3,1105576446,1105576446,1,3.6,002046,002046,351.1,32.010042,-122.420930,-0.15,NaN,NaN,14.596, NaN,NaN,NaN, NaN, NaN
20050113,003436,781855,32.010485,-122.421065,22.5,14.594,32.866,40.190,230.47,0.0,2.331,10.123,14.236, NaN,24.414,   NaN,12.64,1022.46,78.04,12.90,13.3,13.5,7.6,8.4,10.8,10.4,6.6,7.4,NaN, NaN,15.8,330.6,332.7,1105576477,1105576477,1,3.1,002076,002077,351.6,32.010395,-122.421101,-0.10,NaN,NaN,14.598, NaN,NaN,NaN, NaN, NaN
20050113,003506,781885,32.010887,-122.421256,22.5,14.595,32.865,40.190,237.89,0.0,2.388,11.739,14.237, NaN,24.413,   NaN,12.66,1022.47,78.05,12.95,6.3,8.1,8.1,8.7,2.2,4.0,6.8,7.3,NaN, NaN,13.9,286.5,316.5,1105576507,1105576507,1,3.6,002106,002107,351.2,32.010782,-122.421290,0.03,NaN,NaN,14.599, NaN,NaN,NaN, NaN, NaN
20050113,003536,781915,32.011290,-122.421421,22.3,14.594,32.864,40.188,240.44,0.0,2.350,10.974,14.237, NaN,24.412,   NaN,12.64,1022.49,78.07,12.89,3.9,6.7,8.8,9.1,357.3,0.6,7.3,7.6,NaN, NaN,15.5,354.8,7.6,1105576536,1105576536,1,2.7,002136,002136,349.9,32.011178,-122.421446,-0.12,NaN,NaN,14.598, NaN,NaN,NaN, NaN, NaN
20050113,003606,781944,32.011637,-122.421641,22.6,14.593,32.865,40.189,240.59,0.0,2.350,8.761,14.234, NaN,24.414,   NaN,12.70,1022.41,78.38,12.97,4.4,7.6,8.8,9.1,357.5,1.1,7.3,7.7,NaN, NaN,15.6,9.5,325.8,1105576567,1105576566,1,2.8,002166,002166,345.7,32.011527,-122.421643,0.11,NaN,NaN,14.597, NaN,NaN,NaN, NaN, NaN
20050113,003636,781974,32.011952,-122.421868,22.2,14.593,32.864,40.188,240.57,0.0,2.407,11.014,14.233, NaN,24.413,   NaN,12.72,1022.44,78.56,12.99,14.4,16.4,9.0,9.6,5.0,6.7,7.9,8.4,NaN, NaN,13.9,252.9,305.5,1105576597,1105576597,1,2.5,002197,002197,342.9,32.011842,-122.421863,-0.06,NaN,NaN,14.597, NaN,NaN,NaN, NaN, NaN